CAPE
17 2 0 0 0 38 31 21 0 0 115 186 70 0 15 0 28 669 1661 2149 1851 1805 1549 1521 1126 843 765 1263 1361 1203 1377 1016 984 930 639 431 258 80 0 0 0 3 0 0
0 0 0 0 0 0 0 0 0 26 156 84 8 0 0 0 12 282 1215 2223 2131 1813 1497 1254 1130 1232 1584 1341 1357 1306 1261 1170 1047 903 597 414 226 43 0 0 13 0 0 0
0 17 6 2 75 34 3 73 183 1 129 83 52 82 0 0 0 299 882 2398 2089 1735 1501 994 499 1443 1852 1765 1686 1616 1453 1304 1143 945 655 489 285 78 0 0 1 0 0 0
132 185 6 93 52 2 14 630 389 117 58 20 0 2 6 0 0 242 312 2521 1959 1808 1422 491 1322 2148 1999 1926 1760 1555 1136 675 535 571 719 646 343 105 0 0 0 1 0 0
6 8 17 42 63 49 57 551 460 352 91 20 130 4 2 21 618 445 1451 2137 1809 1331 1372 2014 1986 1804 1765 1374 873 458 166 55 12 8 168 699 359 92 2 1 0 0 0 0
0 0 0 26 2 0 67 319 154 70 26 49 78 11 3 127 2580 2553 2262 1894 1845 1717 1588 1445 1361 865 705 287 186 50 0 0 0 0 0 381 315 70 0 0 0 0 0 0
0 0 0 0 0 5 0 141 220 52 5 21 15 15 395 1734 1972 1901 1657 1585 1276 1050 941 859 597 153 219 29 10 0 0 0 0 0 0 6 67 2 1 0 0 0 0 0
0 0 0 419 65 107 162 142 1343 695 131 753 27 257 1708 1865 1778 1619 1299 963 703 545 348 217 2 31 9 0 0 0 0 0 0 0 0 0 0 0 0 0 0 0 0 0
0 0 1786 1780 1889 1758 1643 1631 1724 1421 1771 1614 1425 1221 1071 1073 1259 1270 722 557 241 212 44 1 0 0 0 1 0 0 0 0 1 1 1 0 0 0 0 0 0 0 0 0
76 661 764 867 793 850 1393 1504 1360 1685 1460 1205 882 555 472 650 786 691 449 217 18 13 0 0 0 0 0 0 0 0 0 0 0 0 1 1 0 0 0 0 0 0 0 0
491 441 453 104 0 4 547 1105 1330 1199 1164 896 538 333 415 418 337 198 156 21 0 0 0 0 0 0 0 0 0 0 0 0 0 0 0 1 1 1 0 0 0 0 0 0
135 136 375 464 105 0 507 1154 1333 1187 993 870 591 375 223 166 64 27 24 0 0 0 0 1 1 0 0 0 0 0 0 0 0 0 0 0 0 0 0 0 0 0 0 0
22 6 5 116 280 104 513 935 1153 1009 690 384 340 138 35 0 0 1 0 0 0 0 0 1 0 1 0 1 0 0 0 0 0 0 0 0 0 0 0 0 0 0 0 0
0 0 24 108 31 15 47 925 752 554 353 207 150 60 1 0 0 0 0 0 0 0 0 1 0 0 0 0 0 0 0 0 0 0 0 0 0 0 0 0 0 0 0 0
1 0 0 0 55 35 0 37 406 488 280 171 96 59 53 0 0 0 0 0 1 1 1 0 0 0 0 0 0 0 0 0 0 0 0 0 0 0 0 0 0 0 0 0
0 0 0 0 0 1 22 190 147 310 476 314 209 101 45 0 0 0 0 0 0 1 1 1 2 0 0 0 0 0 0 0 0 0 0 0 0 0 0 0 0 0 0 0
0 0 0 0 0 0 10 0 13 1 206 327 410 292 205 5 0 0 0 1 3 1 0 0 0 0 0 0 0 0 0 0 0 0 0 0 0 0 0 0 0 0 0 0
1 0 0 0 0 0 0 0 8 44 23 55 269 138 77 3 3 0 0 2 0 0 0 0 0 0 0 0 0 0 0 0 0 0 0 0 0 0 0 0 0 0 0 0
0 0 0 0 0 1 13 2 4 48 126 106 275 177 117 67 22 4 2 0 2 4 0 0 0 0 0 0 0 0 0 0 0 0 0 0 0 2 2 2 4 0 0 0
0 0 0 0 0 0 5 37 26 50 178 83 88 75 79 63 18 13 9 19 0 0 0 0 0 0 0 0 0 0 0 0 0 0 2 3 3 11 3 0 0 0 0 0
0 0 0 0 0 0 14 93 141 114 124 186 137 78 22 51 53 54 22 0 9 0 0 0 0 0 0 0 0 0 0 0 0 0 0 0 0 0 0 0 0 0 0 0
1 0 0 0 0 0 51 160 93 102 208 254 166 79 38 102 26 63 24 0 0 0 0 0 0 0 0 0 0 0 0 0 0 0 0 0 0 0 0 0 0 0 0 0
0 0 0 0 0 0 59 146 114 80 334 155 56 42 89 75 55 43 8 0 0 0 0 0 0 0 0 0 0 0 0 0 0 0 0 0 0 0 0 0 0 0 0 0
1 4 5 1 0 28 166 199 0 0 22 46 186 14 56 14 0 0 0 0 0 0 0 0 0 0 0 0 0 0 0 0 0 0 0 0 0 0 0 0 0 0 0 0
2 2 2 6 88 277 213 83 33 0 0 0 1 0 0 0 0 0 0 0 0 0 0 0 0 0 0 0 0 0 0 0 0 0 0 0 0 0 0 0 0 0 0 0
7 16 37 124 113 90 51 26 0 0 0 1 2 4 2 0 0 0 0 0 0 0 0 0 0 0 0 0 0 0 0 0 0 0 0 0 0 0 0 0 0 0 0 0
5 3 1 1 4 4 0 1 1 3 4 3 1 2 2 2 0 0 0 0 0 0 0 0 0 0 0 0 0 0 0 0 0 0 0 0 0 0 0 0 0 0 0 0
CIN
-94 -86 0 0 -2 -25 -30 -28 0 0 -41 -134 -137 -9 -40 -7 -279 -146 -87 -47 -88 -76 -69 -84 -135 -137 -95 -52 -25 -23 -20 -15 -18 -32 -65 -90 -110 -103 0 0 0 -3 0 0
0 -138 -2 0 0 0 -13 0 0 -77 -105 -401 -255 -4 0 0 -317 -184 -140 -41 -84 -83 -84 -82 -55 -26 -10 -18 -22 -11 -6 -16 -25 -35 -58 -87 -112 -117 0 0 -49 0 0 0
0 -125 -101 -91 -86 -56 -35 -66 -40 -5 -103 -430 -274 -237 0 0 0 -92 -150 -36 -81 -92 -95 -110 -143 -20 -11 -16 -19 -20 -26 -30 -33 -25 -33 -52 -88 -98 0 0 -2 0 0 0
-100 -120 -15 -108 -74 -36 -31 -96 -144 -166 -258 -329 -44 -110 -203 -13 0 -162 -252 -28 -81 -79 -110 -203 -63 -18 -27 -25 -36 -48 -81 -132 -141 -107 -58 -21 -58 -83 -40 0 0 -2 0 0
-113 -122 -150 -130 -80 -57 -47 -146 -176 -150 -290 -428 -376 -59 -54 -413 -62 -221 -108 -73 -94 -139 -130 -73 -28 -40 -46 -81 -158 -243 -316 -374 -443 -56 -190 -29 -40 -66 -64 -43 0 0 -4 0
0 0 0 -133 -100 0 -42 -92 -308 -156 -196 -256 -243 -114 -26 -423 -79 -85 -105 -142 -167 -146 -144 -129 -112 -184 -222 -342 -389 -398 0 0 0 0 0 -69 -41 -57 0 0 0 0 0 0
0 0 0 0 0 -42 0 -83 -263 -253 -72 -265 -116 -195 -225 -85 -111 -183 -215 -244 -310 -302 -237 -225 -282 -356 -392 -515 -325 0 0 0 0 0 0 -51 -100 -10 -24 0 0 0 0 0
0 0 0 -13 -32 -47 -141 -114 -84 -162 -140 -48 -158 -301 -126 -127 -143 -158 -235 -342 -387 -357 -382 -395 -301 -508 -577 0 0 0 0 0 0 0 0 0 0 -1 0 0 0 0 0 0
0 0 -30 -42 -56 -59 -69 -52 -14 -40 -67 -112 -161 -181 -220 -239 -217 -199 -316 -347 -425 -440 -545 -49 0 0 0 0 0 0 0 0 0 0 0 0 0 0 0 0 0 0 0 0
-8 -82 -75 -72 -89 -79 -25 -23 -39 -21 -38 -131 -206 -294 -328 -258 -206 -234 -303 -394 -480 -448 0 0 0 0 0 0 0 0 0 0 0 0 0 0 0 0 0 0 0 0 0 0
-62 -94 -78 -150 0 -14 -53 -17 -49 -65 -79 -146 -227 -294 -257 -237 -219 -277 -370 -486 0 0 0 0 0 0 -1 0 0 0 0 0 0 0 0 0 0 0 0 0 0 0 0 0
-33 -91 -47 -57 -89 0 -25 -4 -31 -48 -80 -81 -152 -247 -287 -287 -307 -354 -408 0 0 0 0 0 -1 0 0 -2 0 0 0 0 0 0 0 0 0 0 0 0 0 0 0 0
-52 -67 -83 -51 -59 -61 -21 -10 -21 -36 -75 -136 -149 -230 -278 -12 -8 -18 0 0 0 0 -1 -1 -1 -1 0 -4 -6 0 0 0 0 0 0 0 0 0 0 0 0 0 0 0
0 0 -9 -11 -37 -47 -53 -9 -36 -61 -111 -162 -177 -216 -55 0 0 0 0 0 0 0 0 0 -1 -2 -1 -1 0 0 0 0 0 0 0 0 0 0 0 0 0 0 0 0
-19 0 0 0 -7 -49 -12 -26 -25 -31 -59 -109 -130 -148 -160 0 0 0 -2 -1 -1 -1 -2 -3 -4 0 0 -1 0 0 0 0 0 0 0 0 0 0 0 0 0 0 0 0
0 0 0 0 0 -7 -21 -20 -24 -26 -21 -51 -53 -71 -93 0 0 0 0 -2 -2 -3 -4 -3 -4 0 0 0 0 0 0 0 0 0 0 0 0 0 0 0 0 0 0 0
0 0 0 0 0 0 -21 0 -24 -8 -19 -11 -15 -7 -2 -72 0 0 -2 -5 -5 -9 0 0 -4 0 0 0 0 0 0 0 0 0 0 0 0 0 0 0 0 0 0 0
-24 0 0 0 0 0 0 0 -36 -14 -22 -18 -19 -27 -17 -19 -112 0 0 -6 -3 0 0 0 0 0 0 0 0 0 0 0 0 0 0 0 0 0 0 0 0 0 0 0
0 0 0 0 0 -3 -16 -14 -13 -28 -25 -40 -45 -32 -77 -90 -89 -109 -72 0 -4 -5 0 0 0 0 0 0 0 0 0 0 0 0 0 0 -12 -16 -25 -21 -32 0 0 0
0 0 0 0 0 0 -24 -5 -10 -19 -23 -33 -46 -38 -22 -18 -40 -39 -40 -49 -7 -1 0 0 0 0 0 0 0 0 0 0 0 0 -32 -26 -21 -25 -35 0 0 0 0 0
0 0 0 0 0 0 -66 -31 -16 -15 -21 -29 -26 -46 -48 -106 -67 -24 -7 -1 -33 0 0 0 0 0 0 0 0 0 0 0 0 0 0 0 0 0 0 0 0 0 0 0
-7 0 0 0 0 -10 -68 -44 -67 -47 -23 -21 -53 -59 -81 -44 -68 -35 -15 0 0 0 0 0 0 0 0 0 0 0 0 0 0 0 0 0 0 0 0 0 0 0 0 0
0 0 0 0 0 0 -73 -67 -87 -105 -31 -48 -62 -92 -39 -32 -37 -27 -58 0 0 0 0 0 0 0 0 0 0 0 0 0 0 0 0 0 0 0 0 0 0 0 0 0
-8 -3 -4 -9 -9 -50 -46 -44 0 0 -164 -74 -36 -86 -100 -86 0 -3 0 0 0 0 0 0 0 0 0 0 0 0 0 0 0 0 0 0 0 0 0 0 0 0 0 0
-3 -4 -9 -3 -4 -17 -66 -123 -134 0 0 0 0 0 0 0 0 0 0 0 0 0 0 0 0 0 0 0 0 0 0 0 0 0 0 0 0 0 0 0 0 0 0 0
-9 -3 -14 -10 -25 -49 -70 -98 0 0 0 0 0 0 0 0 0 0 0 0 0 0 0 0 0 0 0 0 0 0 0 0 0 0 0 0 0 0 0 0 0 0 0 0
-7 -2 -5 -14 -20 -25 0 0 0 0 0 0 0 0 0 0 0 0 0 0 0 0 0 0 0 0 0 0 0 0 0 0 0 0 0 0 0 0 0 0 0 0 0 0
Wind_Speed
25 26 29 32 31 25 31 32 13 10 15 11 16 23 21 23 24 19 16 7 9 10 11 14 18 18 19 22 21 21 19 17 15 15 16 17 17 19 21 22 23 23 23 23
29 29 31 36 37 36 35 35 30 20 15 8 16 15 17 17 18 15 22 5 6 6 8 12 14 16 19 18 19 17 16 15 14 14 15 15 16 17 18 19 20 21 21 21
32 32 34 35 30 29 31 29 29 30 15 4 7 8 15 19 8 13 28 7 5 4 5 8 11 13 14 16 16 16 16 16 16 13 12 13 14 15 16 17 18 20 20 20
24 27 28 29 29 26 22 19 17 14 3 2 7 14 13 16 23 20 30 11 5 5 5 7 6 9 12 13 14 16 14 15 15 17 17 12 11 12 14 15 16 17 18 18
25 29 34 33 24 23 21 22 21 12 11 5 7 13 18 29 15 27 23 7 5 6 4 4 5 7 10 11 12 12 14 17 19 19 17 15 9 11 13 14 14 15 15 16
28 29 29 28 21 26 20 25 16 23 17 5 9 20 18 14 19 15 13 11 9 6 5 4 6 4 7 10 12 14 16 18 19 20 20 16 10 10 12 13 15 15 16 16
34 32 36 36 37 30 34 23 8 8 21 6 13 15 13 13 15 14 11 12 11 10 8 7 8 7 8 11 13 15 17 19 20 21 20 18 14 13 13 13 14 14 15 16
32 32 41 29 30 31 21 17 6 4 4 9 11 11 12 12 12 11 12 13 12 10 10 11 9 10 10 13 14 16 17 18 20 21 21 19 16 15 14 12 13 14 15 16
24 26 17 17 18 19 21 18 21 10 6 11 11 11 10 11 11 11 11 11 10 9 10 11 11 10 10 12 13 15 16 18 20 20 20 19 17 16 14 14 13 14 15 15
22 18 16 16 19 22 19 21 19 20 9 9 10 11 10 9 10 9 9 11 11 10 9 9 10 9 9 10 11 13 15 17 18 18 18 18 18 17 16 15 15 15 15 16
16 18 16 19 19 20 17 17 16 16 13 13 10 8 8 8 9 10 11 12 12 10 9 8 8 9 10 9 10 12 14 15 17 16 17 17 18 19 18 18 16 15 16 15
24 20 18 20 19 18 22 22 17 16 16 15 13 11 10 10 11 12 12 11 12 10 8 8 9 9 9 9 11 11 12 13 14 14 15 16 17 18 20 19 18 17 17 16
16 17 18 18 14 20 19 13 15 16 16 17 17 14 12 11 11 11 12 11 11 10 8 8 8 8 8 9 9 10 11 11 12 13 14 15 16 18 19 19 19 18 17 17
19 22 20 17 20 20 21 16 16 17 18 17 16 16 15 14 13 12 12 10 9 8 7 8 8 8 8 9 10 9 10 10 10 11 12 13 14 15 16 18 20 20 17 17
21 20 21 23 20 22 20 20 21 21 19 17 15 14 12 13 11 11 10 9 8 7 7 7 8 8 8 8 8 9 10 10 11 11 10 11 11 13 14 15 17 18 17 19
21 24 25 26 28 28 24 20 22 19 15 15 15 16 14 12 10 11 10 8 7 7 7 8 7 5 6 7 9 11 9 11 11 12 13 15 15 16 15 14 15 16 16 17
26 28 28 29 29 28 28 28 25 24 25 22 22 19 18 10 9 10 10 8 8 6 5 6 7 6 5 6 8 8 9 9 12 15 13 15 16 17 15 14 13 13 13 12
22 25 28 30 31 29 29 30 30 26 26 23 19 18 16 8 7 9 9 10 8 7 6 4 4 3 5 8 8 8 8 10 12 13 14 17 17 15 16 14 14 12 12 11
23 26 27 28 29 29 24 25 25 27 20 19 15 12 10 11 8 5 5 4 3 5 4 4 2 3 5 8 10 12 10 10 11 14 13 17 19 22 19 20 21 17 12 12
28 28 28 28 29 29 31 28 27 26 21 19 16 14 14 12 11 9 8 6 4 5 3 4 2 5 8 10 10 15 12 11 12 14 16 18 18 20 21 22 22 21 15 14
31 33 32 32 31 31 30 30 30 31 21 17 16 16 12 16 8 7 7 6 7 4 4 4 3 7 8 7 12 14 13 13 14 15 17 18 19 22 22 20 22 24 21 19
33 32 34 35 35 33 32 31 30 29 26 18 13 13 14 14 9 5 4 4 4 3 5 7 6 6 7 8 11 12 14 14 14 16 18 19 19 22 24 25 24 24 21 20
34 34 33 33 33 32 31 28 27 28 27 17 14 14 14 13 8 4 1 2 5 7 7 6 6 6 7 9 10 12 13 14 15 16 18 20 21 24 21 18 19 19 19 20
30 26 24 27 20 24 29 25 22 21 22 23 18 13 11 12 10 3 7 9 9 9 8 8 8 7 7 8 10 12 14 15 17 18 19 18 19 22 21 17 18 19 20 21
16 9 18 14 17 12 11 14 15 17 16 21 15 16 10 12 8 1 8 9 8 9 9 11 10 10 9 10 12 14 16 17 17 16 15 18 18 18 19 19 19 20 21 23
15 14 15 16 16 16 12 12 11 9 7 6 6 5 3 1 4 6 7 6 7 7 8 9 9 11 11 13 14 13 13 16 16 18 17 17 18 19 20 20 21 21 23 23
14 13 15 14 12 10 9 13 13 11 9 10 10 7 7 7 7 11 10 8 8 7 7 8 10 11 11 12 13 13 14 17 18 18 18 18 19 20 21 21 21 21 21 21
Wind_Direction
278 282 285 285 285 293 270 284 317 335 319 310 314 308 299 317 323 339 313 76 87 90 92 87 107 108 108 127 111 114 111 108 81 83 79 64 53 43 32 27 31 27 31 27
276 277 282 279 275 279 291 295 305 329 335 347 339 334 330 324 321 318 281 85 76 82 83 97 93 95 90 109 104 89 82 85 78 82 78 56 46 38 32 32 32 29 26 26
276 274 279 278 286 298 301 316 307 296 311 332 355 8 333 336 313 226 253 139 84 90 87 94 84 92 85 79 76 61 46 37 47 71 66 51 49 39 37 37 29 24 27 30
282 280 280 280 296 305 313 327 341 340 12 64 353 331 345 354 307 284 225 155 104 84 96 103 60 76 76 74 61 61 27 19 23 14 19 42 54 42 38 35 31 28 30 32
279 275 273 271 301 308 309 312 327 322 329 348 355 336 336 344 279 197 177 88 64 64 61 95 91 70 66 60 50 37 30 11 5 2 5 14 54 50 42 36 35 31 33 34
277 278 280 273 299 309 324 301 319 285 292 18 346 314 334 20 9 57 76 58 48 41 13 4 328 43 41 32 24 9 4 7 7 4 1 15 43 51 44 48 42 40 29 30
266 273 271 271 281 301 288 303 332 331 208 24 350 354 7 27 21 42 42 42 27 359 343 342 358 356 13 12 3 3 359 359 2 6 4 3 27 31 46 42 42 39 26 21
266 274 270 288 289 289 306 320 330 333 100 33 31 39 32 33 34 34 23 22 21 19 346 336 351 347 358 357 5 2 2 359 357 8 8 1 13 18 23 34 31 21 13 4
273 277 296 315 308 308 310 314 312 340 5 18 20 11 16 6 9 11 20 18 20 19 0 349 348 351 355 358 6 6 2 355 355 4 6 10 13 14 17 19 19 15 12 9
280 294 301 315 319 314 309 306 320 322 344 10 16 352 1 7 3 13 20 17 17 13 14 9 1 6 15 16 14 9 6 357 357 2 4 8 9 9 13 11 10 8 5 1
286 294 302 309 308 330 297 321 333 342 344 340 357 13 11 357 355 357 357 3 6 10 12 7 7 7 6 11 17 15 12 11 1 0 3 6 8 9 11 9 11 8 5 5
279 295 299 301 322 327 318 313 323 333 333 337 340 343 342 338 339 337 346 352 356 2 3 357 354 355 2 13 13 13 11 13 20 11 6 11 14 12 12 16 17 15 15 16
290 301 309 318 318 319 323 327 320 326 332 329 329 331 331 330 329 331 328 335 338 341 347 351 356 359 1 0 11 20 16 26 27 26 20 22 21 21 18 15 18 18 19 17
304 305 307 314 306 314 320 330 334 321 322 325 327 324 321 320 323 322 322 328 337 342 344 345 349 352 0 359 0 9 16 22 26 23 24 24 23 24 24 19 15 12 21 21
295 301 301 307 313 313 318 315 315 314 318 321 322 324 323 321 318 317 320 324 329 336 341 344 342 342 353 0 4 5 2 8 17 24 29 24 25 18 20 20 19 21 22 19
294 298 300 300 304 305 305 313 311 306 310 326 326 320 316 314 318 318 315 317 318 321 329 334 338 354 355 2 3 1 22 15 27 24 17 10 18 15 16 18 19 22 22 21
289 288 292 295 301 303 300 302 310 307 303 301 303 309 308 304 307 312 307 310 312 321 331 336 336 354 15 12 2 5 13 14 1 357 15 11 11 7 16 16 20 22 20 27
303 301 297 294 294 298 300 298 299 307 308 307 305 311 307 309 310 312 305 309 315 322 327 344 1 15 2 4 16 24 11 4 4 14 10 1 2 6 3 2 7 12 15 19
307 305 303 302 302 299 306 306 302 303 309 319 315 305 289 289 319 350 330 337 337 321 332 356 4 9 9 7 354 331 359 356 12 1 9 0 357 352 358 2 357 6 10 9
300 300 300 300 302 303 302 304 302 301 306 303 308 306 298 293 304 306 309 325 332 322 328 346 3 338 339 345 2 4 12 15 2 4 0 355 360 359 355 355 357 357 6 8
296 293 294 293 295 297 300 304 302 299 297 299 296 301 302 285 290 300 309 317 319 84 40 69 344 329 332 353 341 354 11 21 6 356 353 356 355 355 354 359 358 354 357 358
295 297 290 291 290 291 296 298 298 302 300 290 288 289 287 279 286 304 355 316 314 58 59 94 71 59 58 29 2 3 1 1 1 358 355 353 352 351 349 348 350 351 1 14
298 298 299 300 293 289 292 300 301 301 298 289 285 287 281 269 280 274 337 341 88 76 67 81 37 42 51 15 6 3 359 358 357 359 355 350 348 344 346 347 1 12 12 11
265 300 306 299 314 293 289 297 297 300 309 297 286 266 281 257 267 343 72 82 80 66 59 47 40 46 37 18 10 4 4 2 354 350 351 352 356 355 10 20 12 10 7 6
206 38 264 332 319 333 331 320 323 318 290 310 277 264 294 271 257 288 90 75 62 65 58 53 48 39 25 22 11 1 353 353 359 6 15 5 5 17 15 13 11 8 4 1
304 24 25 41 70 215 66 336 343 317 348 329 267 281 351 312 82 83 69 51 53 50 36 43 27 37 20 360 355 7 16 12 12 7 9 18 14 12 10 8 4 1 358 357
11 14 33 18 1 337 334 22 42 33 25 41 43 22 30 26 51 62 60 52 50 37 12 19 30 37 39 40 36 38 26 14 18 20 19 16 11 7 4 3 4 4 4 5